[[{"header":{"parameterUnit":"m.s-1","parameterCategory":1,"la1":30.2991,"la2":30.254,"lo1":-89.0895,"lo2":-89.0444,"dy":0.0017,"dx":0.0017,"nx":28,"ny":28,"refTime":"2024-10-19T09:00:00:Z","depth":0,"parameterNumber":2,"parameterNumberName":"U-component_of_WINDS"},"data":[0,0,0,0,0,0,0,0,0,0,0,0,0,0,0,0,0,0,0,0,0,0,0,0,0,0,0,0,0,0,0,0,0,0,0,0,0,0,0,0,0,0,0,0,0,0,0,0,0,0,0,0,0,0,0,0,0,0,-3.7328,-3.7327,0,-3.7285,-3.7284,-3.7284,-3.7101,-3.7097,-3.7092,-3.7088,-3.7048,-3.705,-3.7053,0,0,0,0,0,0,0,0,0,0,0,0,0,-3.7254,-3.7256,-3.7328,-3.7327,-3.7327,-3.7285,-3.7284,-3.7284,-3.7102,-3.7096,-3.7091,-3.7086,-3.7047,-3.705,-3.7053,0,0,0,0,0,0,0,0,0,0,0,0,0,-3.7256,-3.7257,-3.7328,-3.7231,-3.7222,-3.7285,-3.7284,-3.7284,-3.7103,-3.7096,-3.709,-3.7084,-3.7045,-3.705,-3.7054,-3.7209,0,0,-3.7067,-3.7069,0,0,0,0,0,0,0,0,-3.7257,-3.7259,-3.7246,-3.7238,-3.7227,-3.7191,-3.7243,-3.7259,-3.7104,-3.7148,-3.7088,-3.7081,-3.7101,-3.71,-3.7106,-3.7207,-3.7205,-3.7068,-3.707,-3.7072,-3.7073,0,0,0,0,0,0,0,-3.7257,-3.726,-3.7311,-3.7246,-3.7235,-3.719,-3.7183,-3.7245,-3.7161,-3.7144,-3.713,-3.7127,-3.7095,-3.7103,-3.7104,-3.7205,-3.7067,-3.7071,-3.7074,-3.7076,-3.743,-3.7437,0,0,0,0,0,0,-3.727,-3.7261,-3.7312,-3.731,-3.7226,-3.7197,-3.7189,-3.721,-3.716,-3.7146,-3.7133,-3.7119,-3.7098,-3.7099,-3.7102,-3.728,-3.7072,-3.7076,-3.7079,-3.7424,-3.7432,-3.7439,0,0,0,0,0,0,-3.7269,-3.7276,-3.7314,-3.7282,-3.7283,-3.7204,-3.7229,-3.7212,-3.722,-3.7152,-3.7136,-3.7157,-3.7093,-3.7096,-3.7183,-3.7276,-3.7078,-3.7082,-3.7415,-3.7426,-3.7435,-3.7639,0,0,0,0,0,0,-3.7268,-3.7277,-3.7335,-3.7284,-3.7286,-3.7396,-3.7235,-3.7216,-3.7227,-3.7209,-3.717,-3.7157,-3.7088,-3.7178,-3.7188,-3.7279,-3.7085,-3.7407,-3.742,-3.7432,-3.7624,-3.7655,-3.7682,0,0,0,0,0,-3.7266,-3.7394,-3.7338,-3.7346,-3.7356,-3.7402,-3.7403,-3.732,-3.7236,-3.7293,-3.7249,-3.7158,-3.7264,-3.7188,-3.7198,-3.7292,-3.7401,-3.7416,-3.7431,-3.7611,-3.7649,-3.7681,0,0,0,0,0,0,-3.7459,-3.7386,-3.7323,-3.7439,-3.7428,-3.7371,-3.7441,-3.7363,-3.7377,-3.7359,-3.7257,-3.725,-3.7353,-3.733,-3.7247,-3.7439,-3.7317,-3.7335,-3.745,-3.7486,-3.7514,-3.7518,-3.7089,0,0,0,0,0,-3.7515,-3.7557,-3.7491,-3.76,-3.7598,-3.7521,-3.7538,-3.7475,-3.746,-3.7455,-3.7417,-3.7407,-3.7437,-3.746,-3.7484,-3.7619,-3.7608,-3.7688,-3.7717,-3.7741,-3.7759,-3.7829,-3.7864,-3.749,-3.7489,-3.7489,0,0,-3.7631,-3.7596,-3.763,-3.7638,-3.7622,-3.767,-3.7518,-3.7575,-3.7609,-3.7463,-3.7544,-3.7516,-3.7498,-3.761,-3.7657,-3.7594,-3.7859,-3.7761,-3.7781,-3.7785,-3.7848,-3.7884,-3.7915,-3.75,-3.7498,-3.7496,0,0,-3.7868,-3.7845,-3.7934,-3.792,-3.7897,-3.7845,-3.7867,-3.7821,-3.7797,-3.7875,-3.7767,-3.7807,-3.7862,-3.7853,-3.7856,-3.8089,-3.8006,-3.81,-3.8252,-3.8322,-3.8351,-3.8377,-3.8462,-3.8493,-3.8117,-3.8118,-3.8118,0,-3.8016,-3.8082,-3.7989,-3.8053,-3.806,-3.7929,-3.8018,-3.801,-3.7997,-3.8005,-3.7935,-3.8001,-3.7979,-3.8088,-3.8145,-3.8151,-3.8173,-3.8105,-3.8354,-3.8379,-3.8402,-3.8481,-3.8513,-3.8129,-3.8128,-3.8127,-3.8126,0,-3.8265,-3.8313,-3.8387,-3.8377,-3.8392,-3.8468,-3.8388,-3.8415,-3.8351,-3.8307,-3.8389,-3.8358,-3.8374,-3.8395,-3.8333,-3.8495,-3.8457,-3.8372,-3.8248,-3.8451,-3.8524,-3.8553,-3.8146,-3.8142,-3.8138,-3.8135,0,0,-3.8624,-3.856,-3.8589,-3.8583,-3.8548,-3.8583,-3.8654,-3.8668,-3.8694,-3.8689,-3.8746,-3.8796,-3.8717,-3.872,-3.8656,-3.8717,-3.8905,-3.8624,-3.8622,-3.8679,-3.9083,-3.9149,-3.9185,-3.8849,-3.8854,-3.8859,-3.9085,0,-3.8851,-3.8966,-3.8885,-3.9015,-3.9058,-3.8934,-3.8995,-3.8981,-3.8941,-3.8973,-3.8928,-3.8966,-3.8858,-3.8859,-3.8914,-3.8871,-3.8985,-3.8853,-3.8903,-3.8906,-3.8914,-3.9223,-3.9292,-3.9507,-3.9113,-3.9118,-3.9121,0,-3.9131,-3.9137,-3.9272,-3.9227,-3.9242,-3.9299,-3.9306,-3.9337,-3.9318,-3.9285,-3.9289,-3.9209,-3.9276,-3.9153,-3.9244,-3.9157,-3.9172,-3.9154,-3.916,-3.9163,-3.9027,-3.9236,-3.9574,-3.9607,-3.9165,-3.9161,-3.9158,0,-3.9381,-3.9423,-3.9509,-3.9507,-3.9457,-3.95,-3.9481,-3.9456,-3.947,-3.9476,-3.9484,-3.9499,-3.9508,-3.9522,-3.9448,-3.9365,-3.955,-3.942,-3.9526,-3.9529,-3.9572,-3.9571,-3.9919,-3.958,-3.958,-3.9579,-3.9578,0,-3.9643,-3.9731,-3.962,-3.9674,-3.9768,-3.9673,-3.977,-3.9738,-3.9716,-3.9762,-3.9655,-3.97,-3.96,-3.9635,-3.9578,-3.9664,-3.9668,-3.9644,-3.9628,-3.9655,-3.9658,-3.9665,-3.9649,-3.9587,-3.9586,-3.9584,-3.9582,0,-3.9939,-3.9869,-3.9954,-3.9899,-3.9887,-3.996,-3.9913,-3.996,-3.9913,-3.9972,-3.998,-3.9907,-3.9943,-3.987,-3.9897,-3.9858,-3.998,-3.9939,-3.9986,-3.9975,-4.0085,-4.0077,-4.0452,-4.0497,-4.0128,-4.0131,-4.0134,0,-4.0112,-4.0177,-4.0128,-4.015,-4.0137,-4.0174,-4.0188,-4.0097,-4.0116,-4.0099,-4.0149,-4.0175,-4.0192,-4.0256,-4.0206,-4.0226,-4.0186,-4.0316,-4.0189,-4.0214,-4.019,-4.0188,-4.0195,-4.0343,-4.0348,-4.0351,-4.0354,0,-4.0428,-4.0389,-4.0412,-4.0423,-4.0442,-4.0446,-4.0443,-4.0468,-4.0371,-4.0398,-4.0433,-4.0446,-4.0472,-4.0501,-4.0509,-4.049,-4.0408,-4.0394,-4.042,-4.0449,-4.0474,-4.0464,-4.006,-4.0387,-4.0384,-4.0381,-4.0379,-4.0378,-4.0668,-4.0719,-4.0693,-4.0722,-4.071,-4.071,-4.0752,-4.0709,-4.0736,-4.075,-4.0694,-4.0742,-4.0722,-4.0724,-4.0714,-4.0751,-4.0693,-4.073,-4.074,-4.0751,-4.077,-4.0467,-4.0752,-4.0751,-4.075,-4.0749,-4.0748,0,-4.0979,-4.0956,-4.0983,-4.0982,-4.1005,-4.0922,-4.0915,-4.094,-4.0983,-4.097,-4.0989,-4.1029,-4.1056,-4.1008,-4.1027,-4.1066,-4.1029,-4.1075,-4.1072,-4.107,-4.0819,-4.0796,-4.1105,-4.1105,-4.1105,-4.1105,-4.1105,-4.1104,-4.1144,-4.1226,-4.1185,-4.1261,-4.1236,-4.1281,-4.1284,-4.1284,-4.1273,-4.1323,-4.1344,-4.1312,-4.1285,-4.1302,-4.1324,-4.1308,-4.1322,-4.1381,-4.1354,-4.1122,-4.1087,-4.1054,-4.1031,-4.1384,-4.1385,-4.1601,-4.1603,-4.1604]},{"header":{"parameterUnit":"m.s-1","parameterCategory":1,"la1":30.2991,"la2":30.254,"lo1":-89.0895,"lo2":-89.0444,"dy":0.0017,"dx":0.0017,"nx":28,"ny":28,"refTime":"2024-10-19T09:00:00:Z","depth":0,"parameterNumber":3,"parameterNumberName":"V-component_of_WINDS"},"data":[0,0,0,0,0,0,0,0,0,0,0,0,0,0,0,0,0,0,0,0,0,0,0,0,0,0,0,0,0,0,0,0,0,0,0,0,0,0,0,0,0,0,0,0,0,0,0,0,0,0,0,0,0,0,0,0,0,0,-1.7364,-1.7365,0,-1.7464,-1.7465,-1.7466,-1.7484,-1.7483,-1.7482,-1.7481,-1.7583,-1.7587,-1.759,0,0,0,0,0,0,0,0,0,0,0,0,0,-1.7188,-1.7191,-1.7364,-1.7365,-1.7366,-1.7464,-1.7465,-1.7466,-1.7484,-1.7483,-1.7482,-1.7481,-1.7582,-1.7586,-1.759,0,0,0,0,0,0,0,0,0,0,0,0,0,-1.7273,-1.7192,-1.7364,-1.7387,-1.739,-1.7463,-1.7465,-1.7467,-1.7484,-1.7483,-1.7481,-1.748,-1.7581,-1.7586,-1.7591,-1.7648,0,0,-1.7607,-1.7609,0,0,0,0,0,0,0,0,-1.7268,-1.728,-1.7382,-1.7385,-1.7389,-1.746,-1.744,-1.7528,-1.7484,-1.7448,-1.7481,-1.748,-1.7543,-1.7551,-1.7573,-1.7653,-1.7657,-1.7607,-1.7611,-1.7613,-1.7614,0,0,0,0,0,0,0,-1.7263,-1.7276,-1.7403,-1.7384,-1.7388,-1.7392,-1.7403,-1.7457,-1.7502,-1.7451,-1.7453,-1.7464,-1.7545,-1.7568,-1.7575,-1.7659,-1.7607,-1.7612,-1.7615,-1.7617,-1.779,-1.7792,0,0,0,0,0,0,-1.7253,-1.7271,-1.74,-1.7406,-1.7324,-1.7396,-1.7408,-1.7438,-1.7501,-1.7509,-1.7465,-1.7465,-1.756,-1.7569,-1.7579,-1.765,-1.7613,-1.7618,-1.7621,-1.7789,-1.7791,-1.7792,0,0,0,0,0,0,-1.7249,-1.7264,-1.7396,-1.7339,-1.7356,-1.74,-1.7434,-1.7441,-1.7464,-1.7512,-1.752,-1.7481,-1.7559,-1.7572,-1.7631,-1.7654,-1.762,-1.7625,-1.7787,-1.779,-1.7792,-1.7793,0,0,0,0,0,0,-1.7244,-1.7262,-1.7285,-1.7339,-1.7359,-1.7447,-1.7436,-1.7444,-1.7473,-1.7473,-1.7528,-1.7536,-1.7559,-1.7623,-1.7636,-1.7661,-1.7629,-1.7785,-1.7788,-1.7791,-1.7791,-1.7795,-1.7799,0,0,0,0,0,-1.7237,-1.7282,-1.7286,-1.7302,-1.7388,-1.7448,-1.7459,-1.7485,-1.7475,-1.7498,-1.7528,-1.7534,-1.7649,-1.7629,-1.7644,-1.767,-1.7784,-1.7787,-1.7791,-1.779,-1.7794,-1.7798,0,0,0,0,0,0,-1.723,-1.7289,-1.7295,-1.7359,-1.7398,-1.7451,-1.7481,-1.7489,-1.7532,-1.7531,-1.756,-1.7572,-1.763,-1.7656,-1.7632,-1.7729,-1.7716,-1.7722,-1.771,-1.7715,-1.7718,-1.7712,-1.7633,0,0,0,0,0,-1.7235,-1.7279,-1.7329,-1.738,-1.7399,-1.7436,-1.7463,-1.7479,-1.7522,-1.7538,-1.7573,-1.7614,-1.7659,-1.7688,-1.7732,-1.7794,-1.7807,-1.782,-1.7824,-1.7826,-1.7832,-1.7867,-1.7873,-1.7803,-1.7803,-1.7803,0,0,-1.7248,-1.7285,-1.7311,-1.7379,-1.7412,-1.7456,-1.7451,-1.7498,-1.7531,-1.7546,-1.7604,-1.763,-1.7677,-1.7738,-1.7767,-1.7762,-1.7854,-1.7831,-1.7832,-1.7837,-1.7871,-1.7877,-1.7883,-1.7805,-1.7805,-1.7805,0,0,-1.7293,-1.7326,-1.7372,-1.7404,-1.7453,-1.7478,-1.7488,-1.754,-1.7558,-1.7617,-1.7628,-1.7668,-1.7745,-1.7778,-1.7805,-1.7861,-1.7868,-1.7874,-1.7894,-1.7927,-1.7932,-1.7937,-1.7958,-1.7965,-1.7879,-1.7879,-1.7879,0,-1.7302,-1.737,-1.7395,-1.7442,-1.7471,-1.7485,-1.7532,-1.7562,-1.7623,-1.7643,-1.7636,-1.7733,-1.7765,-1.7834,-1.7847,-1.7868,-1.7882,-1.7869,-1.7929,-1.7935,-1.794,-1.796,-1.7967,-1.788,-1.788,-1.788,-1.788,0,-1.7379,-1.7425,-1.7456,-1.7515,-1.7547,-1.7593,-1.7625,-1.7655,-1.7667,-1.7692,-1.7751,-1.779,-1.7843,-1.786,-1.7873,-1.793,-1.7925,-1.7923,-1.7911,-1.7947,-1.7966,-1.7973,-1.788,-1.788,-1.788,-1.788,0,0,-1.7424,-1.7494,-1.7505,-1.7532,-1.7586,-1.7622,-1.7668,-1.7719,-1.7744,-1.7785,-1.7825,-1.7889,-1.7888,-1.7918,-1.7934,-1.7963,-1.8005,-1.7958,-1.796,-1.7966,-1.8071,-1.8073,-1.8081,-1.801,-1.8011,-1.8012,-1.8067,0,-1.7476,-1.756,-1.7583,-1.7654,-1.7697,-1.7711,-1.7751,-1.7788,-1.7812,-1.7852,-1.7878,-1.7923,-1.7917,-1.7935,-1.7965,-1.7994,-1.8027,-1.799,-1.8047,-1.8049,-1.8036,-1.8091,-1.8094,-1.8144,-1.8075,-1.8076,-1.8077,0,-1.755,-1.7591,-1.7666,-1.7714,-1.7733,-1.7769,-1.7817,-1.7855,-1.7897,-1.7912,-1.7945,-1.7958,-1.8007,-1.7991,-1.8058,-1.8032,-1.8057,-1.8074,-1.8077,-1.8084,-1.8066,-1.8101,-1.816,-1.8168,-1.8089,-1.8088,-1.8087,0,-1.7576,-1.7651,-1.7705,-1.7727,-1.7784,-1.7809,-1.7834,-1.7875,-1.7904,-1.7945,-1.7964,-1.801,-1.8036,-1.8072,-1.8097,-1.8083,-1.8162,-1.8148,-1.8177,-1.8176,-1.8194,-1.8193,-1.8259,-1.8208,-1.8208,-1.8207,-1.8207,0,-1.7633,-1.7678,-1.7718,-1.7752,-1.7803,-1.7828,-1.7878,-1.7903,-1.7939,-1.7977,-1.7991,-1.8027,-1.8058,-1.8098,-1.8118,-1.817,-1.8182,-1.8195,-1.82,-1.8195,-1.8193,-1.8212,-1.821,-1.8209,-1.8209,-1.8209,-1.8208,0,-1.7672,-1.77,-1.776,-1.7809,-1.7822,-1.7857,-1.7899,-1.7932,-1.7955,-1.8003,-1.8016,-1.8053,-1.81,-1.8129,-1.8189,-1.8202,-1.8261,-1.8264,-1.8247,-1.8249,-1.8276,-1.8273,-1.8358,-1.837,-1.8309,-1.831,-1.831,0,-1.7707,-1.7742,-1.7794,-1.7821,-1.7846,-1.7888,-1.7917,-1.7943,-1.7973,-1.8022,-1.8049,-1.8097,-1.8137,-1.8213,-1.8245,-1.829,-1.8295,-1.8322,-1.8303,-1.8296,-1.8297,-1.8295,-1.8299,-1.8325,-1.8326,-1.8326,-1.8327,0,-1.7767,-1.7778,-1.782,-1.7866,-1.79,-1.7937,-1.7975,-1.7996,-1.8027,-1.806,-1.8108,-1.8139,-1.82,-1.8248,-1.8296,-1.8321,-1.833,-1.8332,-1.8341,-1.8337,-1.8326,-1.8333,-1.8257,-1.8331,-1.833,-1.833,-1.833,-1.833,-1.7806,-1.7837,-1.7878,-1.7924,-1.7954,-1.7988,-1.8021,-1.8048,-1.8089,-1.814,-1.8153,-1.8203,-1.8244,-1.8309,-1.8335,-1.8376,-1.8371,-1.8384,-1.8388,-1.8391,-1.8392,-1.8318,-1.8384,-1.8384,-1.8384,-1.8384,-1.8384,0,-1.7867,-1.7893,-1.7934,-1.7986,-1.8021,-1.8024,-1.8065,-1.8095,-1.814,-1.8176,-1.8215,-1.827,-1.8316,-1.8351,-1.8398,-1.8423,-1.8428,-1.8435,-1.8434,-1.844,-1.8393,-1.8381,-1.843,-1.843,-1.843,-1.843,-1.843,-1.843,-1.7903,-1.7956,-1.7973,-1.8041,-1.8068,-1.8117,-1.814,-1.8172,-1.8201,-1.8262,-1.83,-1.8322,-1.8358,-1.8407,-1.8449,-1.8458,-1.8476,-1.8482,-1.8492,-1.8448,-1.8443,-1.8438,-1.8427,-1.8485,-1.8485,-1.8535,-1.8536,-1.8536]}]]